Tiempo cada hora Czyszkowek

Hoy, 4 Agosto, Miércoles

Tiempo Temperatura Precipitaciones Viento Presión Humedad
00:00 +16°C° 0 mm 2 mps 750 mmHg 78%
01:00 +16°C° 0 mm 2 mps 749 mmHg 82%
02:00 +15°C° 0.1 mm 2 mps 749 mmHg 85%
03:00 +15°C° 0.1 mm 2 mps 749 mmHg 89%
04:00 +14°C° 0.1 mm 2 mps 749 mmHg 92%
05:00 +16°C° 0 mm 2 mps 749 mmHg 87%
06:00 +17°C° 0 mm 2 mps 749 mmHg 82%
07:00 +18°C° 0 mm 2 mps 749 mmHg 78%
08:00 +19°C° 0.3 mm 3 mps 750 mmHg 77%
09:00 +19°C° 0.3 mm 3 mps 750 mmHg 76%
10:00 +20°C° 0.3 mm 4 mps 750 mmHg 75%
11:00 +19°C° 0.3 mm 3 mps 750 mmHg 77%
12:00 +19°C° 0.3 mm 3 mps 750 mmHg 80%
13:00 +18°C° 0.3 mm 3 mps 750 mmHg 82%
14:00 +18°C° 0.2 mm 2 mps 750 mmHg 84%
15:00 +17°C° 0.2 mm 2 mps 749 mmHg 86%
16:00 +18°C° 0.2 mm 1 mps 749 mmHg 88%
17:00 +16°C° 0 mm 1 mps 749 mmHg 89%
18:00 +16°C° 0 mm 1 mps 749 mmHg 89%
19:00 +16°C° 0 mm 1 mps 749 mmHg 89%
20:00 +16°C° 0 mm 1 mps 749 mmHg 90%
21:00 +15°C° 0 mm 1 mps 749 mmHg 91%
22:00 +15°C° 0 mm 1 mps 749 mmHg 92%
23:00 +14°C° 0 mm 1 mps 749 mmHg 93%

Mañana, 5 Agosto, Jueves

Tiempo Temperatura Precipitaciones Viento Presión Humedad
00:00 +14°C° 0 mm 1 mps 749 mmHg 93%
01:00 +14°C° 0 mm 1 mps 749 mmHg 93%
02:00 +14°C° 0 mm 1 mps 749 mmHg 94%
03:00 +13°C° 0 mm 1 mps 748 mmHg 94%
04:00 +13°C° 0 mm 1 mps 748 mmHg 94%
05:00 +14°C° 0 mm 2 mps 748 mmHg 91%
06:00 +16°C° 0 mm 2 mps 748 mmHg 87%
07:00 +17°C° 0 mm 2 mps 748 mmHg 84%
08:00 +18°C° 0 mm 2 mps 748 mmHg 78%
09:00 +19°C° 0 mm 2 mps 748 mmHg 72%
10:00 +20°C° 0 mm 2 mps 748 mmHg 67%
11:00 +21°C° 0 mm 2 mps 747 mmHg 65%
12:00 +21°C° 0 mm 2 mps 747 mmHg 63%
13:00 +23°C° 0 mm 2 mps 747 mmHg 61%
14:00 +21°C° 0.2 mm 3 mps 747 mmHg 68%
15:00 +20°C° 0.2 mm 3 mps 746 mmHg 75%
16:00 +19°C° 0.2 mm 3 mps 746 mmHg 82%
17:00 +18°C° 0.1 mm 3 mps 746 mmHg 84%
18:00 +18°C° 0.1 mm 3 mps 745 mmHg 86%
19:00 +17°C° 0.1 mm 3 mps 745 mmHg 87%
20:00 +17°C° 0.1 mm 4 mps 744 mmHg 87%
21:00 +17°C° 0.1 mm 4 mps 744 mmHg 86%
22:00 +17°C° 0.1 mm 4 mps 743 mmHg 85%
23:00 +17°C° 0.5 mm 4 mps 743 mmHg 88%

Pasado mañana, 6 Agosto, Viernes

Tiempo Temperatura Precipitaciones Viento Presión Humedad
00:00 +17°C° 0.5 mm 4 mps 743 mmHg 90%
01:00 +17°C° 0.5 mm 4 mps 742 mmHg 93%
02:00 +15°C° 2.2 mm 4 mps 742 mmHg 94%
03:00 +15°C° 2.2 mm 4 mps 742 mmHg 95%
04:00 +15°C° 2.2 mm 5 mps 741 mmHg 96%
05:00 +15°C° 0.3 mm 4 mps 741 mmHg 96%
06:00 +14°C° 0.3 mm 4 mps 741 mmHg 96%
07:00 +14°C° 0.3 mm 3 mps 741 mmHg 96%
08:00 +14°C° 0.1 mm 3 mps 741 mmHg 95%
09:00 +14°C° 0.1 mm 3 mps 742 mmHg 95%
10:00 +14°C° 0.1 mm 3 mps 742 mmHg 94%
11:00 +14°C° 0 mm 3 mps 742 mmHg 93%
12:00 +14°C° 0 mm 3 mps 742 mmHg 93%
13:00 +14°C° 0 mm 3 mps 742 mmHg 92%
14:00 +14°C° 0 mm 3 mps 743 mmHg 92%
15:00 +14°C° 0 mm 3 mps 743 mmHg 92%
16:00 +14°C° 0 mm 3 mps 743 mmHg 93%
17:00 +14°C° 0 mm 3 mps 743 mmHg 94%
18:00 +14°C° 0 mm 3 mps 743 mmHg 95%
19:00 +14°C° 0 mm 3 mps 744 mmHg 95%
20:00 +14°C° 0.1 mm 3 mps 744 mmHg 96%
21:00 +14°C° 0.1 mm 3 mps 744 mmHg 96%
22:00 +14°C° 0.1 mm 3 mps 744 mmHg 96%
23:00 +14°C° 0.1 mm 3 mps 745 mmHg 96%

7 Agosto, Sábado

Tiempo Temperatura Precipitaciones Viento Presión Humedad
00:00 +14°C° 0.1 mm 3 mps 745 mmHg 97%
01:00 +14°C° 0.1 mm 3 mps 745 mmHg 97%
02:00 +15°C° 0 mm 2 mps 745 mmHg 97%
03:00 +15°C° 0 mm 2 mps 745 mmHg 97%
04:00 +14°C° 0 mm 2 mps 746 mmHg 97%
05:00 +15°C° 0 mm 2 mps 746 mmHg 93%
06:00 +16°C° 0 mm 3 mps 746 mmHg 89%
07:00 +16°C° 0 mm 3 mps 747 mmHg 85%
08:00 +18°C° 0 mm 3 mps 747 mmHg 77%
09:00 +20°C° 0 mm 3 mps 747 mmHg 70%
10:00 +21°C° 0 mm 2 mps 747 mmHg 62%
11:00 +23°C° 0 mm 2 mps 747 mmHg 57%
12:00 +24°C° 0 mm 3 mps 747 mmHg 52%
13:00 +25°C° 0 mm 3 mps 747 mmHg 47%
14:00 +26°C° 0 mm 2 mps 747 mmHg 48%
15:00 +26°C° 0 mm 2 mps 747 mmHg 49%
16:00 +26°C° 0 mm 2 mps 747 mmHg 50%
17:00 +25°C° 0 mm 2 mps 747 mmHg 57%
18:00 +23°C° 0 mm 2 mps 747 mmHg 63%
19:00 +21°C° 0 mm 3 mps 747 mmHg 69%
20:00 +20°C° 0 mm 3 mps 747 mmHg 72%
21:00 +20°C° 0 mm 3 mps 747 mmHg 75%
22:00 +19°C° 0 mm 3 mps 747 mmHg 77%
23:00 +19°C° 0 mm 3 mps 747 mmHg 78%

8 Agosto, Domingo

Tiempo Temperatura Precipitaciones Viento Presión Humedad
00:00 +18°C° 0 mm 3 mps 747 mmHg 78%
01:00 +18°C° 0 mm 3 mps 747 mmHg 79%
02:00 +18°C° 0 mm 4 mps 747 mmHg 78%
03:00 +18°C° 0 mm 4 mps 747 mmHg 78%
04:00 +17°C° 0 mm 5 mps 747 mmHg 78%
05:00 +19°C° 0 mm 5 mps 747 mmHg 76%
06:00 +20°C° 0 mm 5 mps 747 mmHg 74%
07:00 +21°C° 0 mm 5 mps 747 mmHg 72%
08:00 +21°C° 0 mm 5 mps 747 mmHg 71%
09:00 +22°C° 0 mm 4 mps 748 mmHg 69%
10:00 +22°C° 0 mm 4 mps 748 mmHg 68%
11:00 +23°C° 0 mm 4 mps 748 mmHg 67%
12:00 +23°C° 0 mm 4 mps 749 mmHg 67%
13:00 +25°C° 0 mm 4 mps 749 mmHg 66%
14:00 +25°C° 0 mm 4 mps 750 mmHg 64%
15:00 +25°C° 0 mm 4 mps 750 mmHg 62%
16:00 +26°C° 0 mm 3 mps 750 mmHg 61%
17:00 +24°C° 0 mm 3 mps 750 mmHg 66%
18:00 +23°C° 0 mm 2 mps 751 mmHg 71%
19:00 +21°C° 0 mm 2 mps 751 mmHg 76%
20:00 +21°C° 0 mm 1 mps 751 mmHg 76%
21:00 +20°C° 0 mm 1 mps 752 mmHg 76%
22:00 +20°C° 0 mm 1 mps 752 mmHg 75%
23:00 +20°C° 0 mm 1 mps 752 mmHg 75%

9 Agosto, Lunes

Tiempo Temperatura Precipitaciones Viento Presión Humedad
00:00 +19°C° 0 mm 1 mps 752 mmHg 76%
01:00 +19°C° 0 mm 1 mps 752 mmHg 76%
02:00 +19°C° 0 mm 1 mps 752 mmHg 76%
03:00 +19°C° 0 mm 1 mps 753 mmHg 77%
04:00 +19°C° 0 mm 1 mps 753 mmHg 77%
05:00 +20°C° 0 mm 1 mps 753 mmHg 74%
06:00 +21°C° 0 mm 1 mps 753 mmHg 71%
07:00 +22°C° 0 mm 1 mps 753 mmHg 68%
08:00 +24°C° 0 mm 1 mps 753 mmHg 62%
09:00 +25°C° 0 mm 1 mps 754 mmHg 56%
10:00 +27°C° 0 mm 1 mps 754 mmHg 50%
11:00 +27°C° 0 mm 1 mps 754 mmHg 47%
12:00 +28°C° 0 mm 1 mps 753 mmHg 44%
13:00 +29°C° 0 mm 1 mps 753 mmHg 42%
14:00 +28°C° 0 mm 1 mps 753 mmHg 47%
15:00 +27°C° 0 mm 2 mps 753 mmHg 52%
16:00 +25°C° 0 mm 2 mps 753 mmHg 57%
17:00 +25°C° 0 mm 1 mps 753 mmHg 59%
18:00 +24°C° 0 mm 1 mps 753 mmHg 62%
19:00 +23°C° 0 mm 1 mps 753 mmHg 65%
20:00 +22°C° 0.1 mm 1 mps 753 mmHg 66%
21:00 +22°C° 0.1 mm 1 mps 753 mmHg 68%
22:00 +21°C° 0.1 mm 1 mps 752 mmHg 69%
23:00 +21°C° 0.3 mm 1 mps 752 mmHg 73%
Mostrar más

Necesitamos Su Consentimiento

Meteoprog y nuestros Proveedores de Servicios pueden almacenar y acceder a sus datos personales como cookies, identificadores de dispositivo u otras tecnologías similares de su dispositivo y procesar dichos datos para personalizar contenido y anuncios, además de ofrecer funciones de redes sociales y analizar el tráfico.

  • Almacenar y/o acceder a información en su dispositivo

    Se puede almacenar o acceder a cookies, identificadores de dispositivo u otra información de su dispositivo para los fines anteriormente indicados.

  • Anuncios y contenido personalizados, medición de anuncios y contenido, percepciones del público, y desarrollo de productos

    Los anuncios y el contenido pueden personalizarse en base a su perfil. Se pueden añadir más datos para personalizar mejor los anuncios y contenidos. Se puede medir el rendimiento de los anuncios y contenidos. Se puede obtener la percepción sobre el público que ha visto los anuncios y contenidos. Dichos datos pueden usarse para desarrollar o mejorar la experiencia del usuario, sistemas y software.

Al hacer clic en ‘Estoy De Acuerdo’ usted permitirá el uso de las cookies, identificadores de dispositivo, balizas web u otras tecnologías similares indicadas. Su configuración puede cambiarse desde el navegador de su dispositivo.

Para ciertos fines, los intereses legítimos pueden ser considerados por encima del consentimiento. Puede leer más sobre ello en nuestra Política de Privacidad y Cookies.